www.pogodaiklimat.ru

Погода и климат >> Архив погоды >> Ирландия >> Malin Head


ПОГОДА в Malin Head

  • Прогноз погоды в Malin Head
  • Монитор погоды в Malin Head
  • Климат города

АРХИВ ПОГОДЫ в Malin Head

Время (UTC), дата Ветер
(напр.,м/с)
 
Видим.   Явления Облачность Т
(С)
Тd
(С)
f
(%)
Тe
(С)
Тes
(С)
Комфортность P
(гПа)
Po
(гПа)
Тmin
(С)
Tmax
(С)
R
(мм)
R24
(мм)
S
(см)
22 13.09 ЮЗ 8 14 км н/о +12.1 +9.8 86 +9 +9 1014.3 1011.9
23 13.09 ЮЗ 9 10 км морось н/о +12.3 +10.3 88 +9 +9 1013.8 1011.4
00 14.09 ЮЗ 9 12 км слаб. ливневой дождь {морось} н/о +12.4 +10.5 88 +9 +9 1013.2 1010.7 0.2
02 14.09 ЮЗ 10 14 км слаб. ливневой дождь н/о +12.7 +10.6 87 +9 +9 1012.1 1009.6
01 14.09 ЮЗ 9 14 км слаб. ливневой дождь н/о +12.5 +10.8 89 +9 +9 1012.5 1010.0
03 14.09 ЮЗ 10
{18}
11 км слаб. ливневой дождь н/о +12.6 +10.9 89 +9 +9 1011.7 1009.3
04 14.09 З 10 11 км слаб. ливневой дождь н/о +12.5 +10.5 88 +9 +9 1011.6 1009.1
05 14.09 З 10 7000 м ливневой дождь н/о +12.3 +10.3 88 +9 +9 1011.6 1009.1
06 14.09 З 9 13 км {ливн. осадки} н/о +12.5 +9.8 84 +9 +9 1011.7 1009.2 +11.5 3
08 14.09 З 9 18 км н/о +13.0 +9.6 80 +10 +10 1012.3 1009.8
07 14.09 З 8 13 км слаб. ливневой дождь н/о +12.4 +10.2 86 +9 +9 1012.2 1009.7
09 14.09 ЮЗ 7 12 км слаб. ливневой дождь н/о +13.4 +10.7 84 +11 +11 1012.4 1009.9
10 14.09 ЮЗ 10 13 км слаб. ливневой дождь н/о +12.9 +10.9 88 +10 +10 1012.6 1010.1
11 14.09 З 11 5000 м ливневой дождь н/о +11.1 +9.7 91 +7 +7 1012.6 1010.1
12 14.09 З 6 7000 м ливневой дождь н/о +11.5 +10.5 94 +8 +8 1013.0 1010.5 15
14 14.09 З 5 25 км в посл. час дождь {ливн. осадки} н/о +12.2 +10.5 89 +10 +10 1013.9 1011.5
13 14.09 З 4 9000 м дождь н/о +11.3 +10.4 94 +9 +9 1013.2 1010.7
15 14.09 З 5 19 км {ливн. осадки, дождь} н/о +12.7 +10.7 88 +10 +10 1013.8 1011.3
16 14.09 СЗ 5 19 км н/о +12.2 +9.8 85 +10 +10 1014.4 1011.9
17 14.09 З 5 30 км н/о +11.5 +8.9 84 +9 +9 1015.1 1012.6
18 14.09 З 6 40 км {ливн. осадки, дождь} н/о +11.2 +7.6 78 +8 +8 1015.5 1013.0 +13.7 20
20 14.09 З 7 28 км н/о +10.9 +6.6 75 +8 +8 1016.8 1014.3
19 14.09 З 7 35 км н/о +11.0 +6.3 73 +8 +8 1016.1 1013.6
21 14.09 З 6 30 км н/о +10.8 +6.1 73 +8 +8 1017.2 1014.7
22 14.09 З 7 30 км н/о +10.9 +5.4 69 +8 +8 1017.3 1014.8
23 14.09 З 7 30 км н/о +10.2 +5.0 70 +7 +7 1017.4 1014.9
00 15.09 ЮЗ 5 24 км н/о +10.7 +7.2 79 +8 +8 1017.5 1015.0
02 15.09 ЮЗ 5 26 км н/о +10.2 +7.9 86 +7 +7 1017.7 1015.1
01 15.09 Ю 4 17 км н/о +9.1 +6.4 83 +6 +6 1017.7 1015.2
03 15.09 ЮЗ 5 27 км н/о +10.5 +7.9 84 +8 +8 1017.5 1015.0
04 15.09 Ю 4 25 км н/о +10.1 +7.3 83 +7 +7 1017.4 1014.9
05 15.09 Ю 4 22 км н/о +9.5 +7.5 87 +7 +7 1017.4 1014.9
06 15.09 Ю 4 45 км н/о +9.6 +7.9 89 +7 +7 1017.5 1015.0 +9.0
08 15.09 Ю 5 22 км слаб. ливневой дождь н/о +10.7 +9.3 91 +8 +8 1017.9 1015.3
07 15.09 Ю 5 29 км в посл. час дождь {ливн. осадки} н/о +10.0 +8.4 90 +7 +7 1017.7 1015.2
09 15.09 Ю 4 13 км слаб. ливневой дождь н/о +10.9 +9.8 93 +8 +8 1018.0 1015.5
10 15.09 Ю 4 3000 м слаб. ливневой дождь н/о +11.6 +10.5 93 +9 +9 1017.9 1015.4
11 15.09 ЮЗ 5 5000 м в посл. час дождь н/о +11.6 +10.9 95 +9 +9 1018.0 1015.5
12 15.09 Ю 2 16 км слаб. ливневой дождь н/о +12.4 +11.5 94 +11 +11 1017.3 1014.8 2
14 15.09 Ю 5 21 км слаб. морось н/о +14.0 +11.4 84 +12 +12 1016.1 1013.6
13 15.09 Ю 6 22 км слаб. ливневой дождь н/о +13.1 +11.1 88 +11 +11 1016.9 1014.4
15 15.09 Ю 6 16 км слаб. ливневой дождь {морось} н/о +14.0 +11.4 84 +12 +12 1015.4 1012.9
16 15.09 Ю 6 8000 м слаб. дождь н/о +13.5 +11.6 88 +11 +11 1014.7 1012.2
17 15.09 Ю 8 15 км слаб. ливневой дождь н/о +13.8 +11.9 88 +11 +11 1013.7 1011.3
18 15.09 Ю 6 21 км в посл. час дождь {ливн. осадки} н/о +13.6 +11.2 85 +11 +11 1012.4 1010.0 +14.2 3
20 15.09 Ю 10 30 км слаб. ливневой дождь н/о +13.6 +11.3 86 +11 +11 1008.7 1006.2
19 15.09 Ю 7 16 км в посл. час морось {ливн. осадки} н/о +13.5 +11.2 86 +11 +11 1010.4 1008.0
21 15.09 ЮВ 11 40 км в посл. час дождь {ливн. осадки} н/о +13.7 +10.9 83 +11 +11 1006.9 1004.4
22 15.09 Ю 14
{21}
40 км слаб. ливневой дождь н/о +14.3 +10.8 79 +11 +11 1005.0 1002.5
23 15.09 Ю 15
{23}
45 км н/о +14.7 +11.8 83 +11 +11 1003.0 1000.6
00 16.09 Ю 16
{24}
45 км {ливн. осадки} н/о +15.5 +12.4 82 +13 +13 1002.1 999.7 0.9
02 16.09 ЮЗ 15
{20}
10 км слаб. ливневой дождь н/о +15.4 +13.3 87 +12 +12 1002.0 999.6
01 16.09 Ю 14
{23}
10 км н/о +15.1 +13.2 88 +12 +12 1001.3 998.9
03 16.09 З 15
{20}
7000 м слаб. ливневой дождь н/о +13.7 +12.0 89 +10 +10 1003.2 1000.8
04 16.09 З 13
{20}
15 км {ливн. осадки} н/о +13.1 +11.0 87 +9 +9 1004.5 1002.0
05 16.09 З 12
{18}
5000 м дымка н/о +12.6 +11.1 91 +9 +9 1005.5 1003.0
06 16.09 ЮЗ 11 16 км в посл. час морось {ливн. осадки} н/о +13.2 +10.8 85 +10 +10 1006.3 1003.9 +12.6 1
08 16.09 З 9 19 км в посл. час дождь {ливн. осадки} н/о +12.0 +10.7 92 +8 +8 1007.8 1005.3
07 16.09 ЮЗ 10 3400 м дождь н/о +12.3 +11.0 92 +9 +9 1007.1 1004.6
09 16.09 З 12
{19}
14 км в посл. час дождь {ливн. осадки} н/о +11.4 +9.6 89 +7 +7 1008.5 1006.0
10 16.09 З 9 18 км н/о +12.8 +8.9 77 +10 +10 1008.9 1006.5
11 16.09 З 10 13 км н/о +12.6 +8.3 75 +9 +9 1009.7 1007.2
12 16.09 З 10 15 км {ливн. осадки, дождь} н/о +13.2 +8.2 72 +10 +10 1010.0 1007.6 2
14 16.09 ЮЗ 10 20 км н/о +14.1 +8.9 71 +11 +11 1010.6 1008.1
13 16.09 З 11 22 км н/о +13.6 +8.1 69 +11 +11 1010.4 1008.0
15 16.09 ЮЗ 8 22 км н/о +14.1 +9.1 72 +12 +12 1010.2 1007.8
16 16.09 ЮЗ 7 21 км н/о +13.9 +9.4 74 +12 +12 1010.3 1007.8
17 16.09 ЮЗ 9 23 км н/о +13.8 +8.7 71 +11 +11 1010.3 1007.8
18 16.09 ЮЗ 10 24 км н/о +13.7 +8.7 72 +11 +11 1010.3 1007.8 +14.6 2
20 16.09 ЮЗ 8 20 км н/о +13.1 +9.3 78 +10 +10 1010.8 1008.3
19 16.09 ЮЗ 8 22 км в посл. час морось {ливн. осадки} н/о +12.7 +9.7 82 +10 +10 1010.4 1007.9
21 16.09 ЮЗ 8 20 км {ливн. осадки} н/о +13.1 +9.5 79 +10 +10 1010.8 1008.4
22 16.09 ЮЗ 9 22 км в посл. час морось н/о +13.3 +9.9 80 +10 +10 1010.6 1008.2
23 16.09 Ю 6 27 км н/о +12.9 +9.6 80 +10 +10 1010.3 1007.8
00 17.09 Ю 8 23 км {ливн. осадки, морось} н/о +12.8 +9.5 80 +10 +10 1009.8 1007.4 0.0
02 17.09 Ю 7 21 км н/о +12.6 +10.3 86 +10 +10 1009.2 1006.7
01 17.09 Ю 9 28 км н/о +12.9 +9.9 82 +10 +10 1009.6 1007.1
03 17.09 Ю 7 25 км н/о +12.9 +10.3 84 +10 +10 1008.8 1006.3
04 17.09 Ю 7 29 км н/о +12.7 +10.3 85 +10 +10 1008.4 1005.9
05 17.09 Ю 8 29 км н/о +12.6 +10.4 86 +10 +10 1007.8 1005.4
06 17.09 Ю 7 21 км н/о +12.6 +10.6 88 +10 +10 1008.0 1005.6 +12.4 0.0
08 17.09 ЮВ 5 15 км н/о +12.3 +10.5 89 +10 +10 1006.8 1004.3
07 17.09 Ю 3 25 км н/о +12.2 +10.3 88 +11 +11 1007.3 1004.9
09 17.09 ЮВ 5 13 км слаб. дождь н/о +12.4 +10.6 89 +10 +10 1005.6 1003.2
10 17.09 ЮВ 8 26 км слаб. ливневой дождь н/о +12.7 +10.6 87 +10 +10 1004.0 1001.6
11 17.09 ЮВ 9 24 км в посл. час морось н/о +12.7 +10.1 84 +9 +9 1002.3 999.9
12 17.09 Ю 12 30 км {ливн. осадки, дождь} н/о +13.7 +11.2 85 +10 +10 1000.4 997.9 1
14 17.09 Ю 7 30 км н/о +15.9 +13.4 85 +14 +14 998.0 995.6
13 17.09 ЮВ 12
{18}
35 км н/о +14.6 +12.1 85 +12 +12 999.5 997.1
15 17.09 Ю 10 26 км морось н/о +17.6 +14.6 83 +16 +16 996.0 993.6
16 17.09 Ю 11
{17}
10 км ливневой дождь н/о +17.5 +15.4 87 +16 +16 995.1 992.7
17 17.09 Ю 11
{18}
12 км слаб. ливневой дождь н/о +17.4 +15.5 89 +16 +16 994.5 992.1
18 17.09 Ю 13
{19}
8000 м дождь {ливн. осадки} н/о +17.2 +15.6 90 +15 +15 994.6 992.2 +18.4 5
20 17.09 Ю 13
{20}
30 км слаб. ливневой дождь н/о +17.3 +15.7 90 +15 +15 994.9 992.5
19 17.09 Ю 12
{19}
7000 м дождь н/о +17.0 +15.8 93 +15 +15 994.7 992.3
21 17.09 Ю 11 17 км слаб. ливневой дождь н/о +16.9 +15.5 91 +15 +15 994.7 992.3
22 17.09 З 9 3100 м ливневой дождь н/о +13.6 +13.0 96 +11 +11 995.4 992.9
23 17.09 З 6 2400 м сильн. морось {дождь} н/о +13.0 +12.6 97 +10 +10 996.1 993.6
00 18.09 СЗ 5 2600 м морось {ливн. осадки, дождь} н/о +12.7 +12.5 99 +10 +10 995.9 993.5 7
02 18.09 С 3 6000 м слаб. дождь н/о +12.8 +12.4 97 +11 +11 994.7 992.3
01 18.09 С 3 4600 м морось {дождь} н/о +12.6 +12.4 99 +11 +11 995.3 992.9
03 18.09 С 5 5000 м слаб. дождь н/о +12.7 +12.3 97 +10 +10 994.1 991.6
04 18.09 С 6 3600 м слаб. морось {дождь} н/о +12.7 +12.5 99 +10 +10 993.7 991.3
05 18.09 С 6 2700 м слаб. дождь {морось} н/о +12.7 +12.5 99 +10 +10 993.3 990.8
06 18.09 С 4 5000 м в посл. час дождь {ливн. осадки} н/о +12.7 +12.4 98 +11 +11 993.2 990.8 +12.6 9
08 18.09 СЗ 3 2300 м слаб. ливневой дождь н/о +12.8 +12.6 99 +11 +11 993.9 991.4
07 18.09 С 4 5000 м слаб. дождь н/о +12.7 +12.5 99 +11 +11 993.5 991.1
09 18.09 З 3 6000 м дымка {ливн. осадки, дождь} н/о +13.0 +12.7 98 +12 +12 994.4 992.0
10 18.09 СЗ 3 1600 м слаб. дождь {дымка} н/о +12.8 +12.5 98 +11 +11 994.7 992.2
11 18.09 З 4 1900 м слаб. ливневой дождь н/о +13.2 +12.9 98 +11 +11 995.2 992.8
12 18.09 З 7 5000 м в посл. час дождь {ливн. осадки} н/о +13.0 +12.6 97 +10 +10 995.9 993.5 1
14 18.09 Ю 8 45 км н/о +15.3 +12.1 81 +13 +13 994.9 992.5
13 18.09 ЮЗ 8 30 км {ливн. осадки} н/о +15.1 +12.9 87 +13 +13 994.8 992.4
15 18.09 Ю 8 27 км {ливн. осадки} н/о +16.5 +12.5 77 +15 +15 994.7 992.3
16 18.09 ЮЗ 7 30 км в посл. час морось {ливн. осадки} н/о +16.9 +13.1 78 +16 +16 994.5 992.1
17 18.09 Ю 10
{18}
21 км слаб. ливневой дождь н/о +15.2 +11.0 76 +13 +13 994.9 992.4
18 18.09 ЮЗ 10 19 км {ливн. осадки} н/о +14.4 +9.2 71 +12 +12 995.3 992.9 +17.2 1
20 18.09 Ю 11 21 км н/о +13.1 +8.9 76 +10 +10 994.8 992.3
19 18.09 Ю 7 21 км н/о +13.0 +9.2 78 +10 +10 995.3 992.9
21 18.09 Ю 12
{19}
21 км слаб. ливневой дождь н/о +12.1 +9.1 82 +8 +8 994.6 992.2
22 18.09 ЮЗ 13
{19}
35 км в посл. час дождь {ливн. осадки} н/о +10.2 +8.0 86 +5 +5 994.3 991.9
23 18.09 ЮЗ 14
{28}
22 км в посл. час дождь {ливн. осадки} н/о +11.0 +7.8 81 +6 +6 995.5 993.0
00 19.09 ЮЗ 13
{21}
20 км {ливн. осадки} н/о +11.1 +8.3 83 +7 +7 996.4 994.0 5
02 19.09 ЮЗ 12
{18}
19 км н/о +11.4 +7.8 79 +7 +7 996.0 993.5
01 19.09 ЮЗ 12 20 км н/о +11.2 +7.6 78 +7 +7 996.8 994.4
03 19.09 Ю 9 18 км н/о +11.1 +7.4 78 +7 +7 995.5 993.1
04 19.09 Ю 11 16 км слаб. ливневой дождь н/о +11.1 +7.3 77 +7 +7 994.8 992.4
05 19.09 Ю 8 12 км слаб. дождь н/о +10.3 +7.7 84 +6 +6 993.6 991.1
06 19.09 ЮВ 9 10 км слаб. дождь н/о +10.2 +8.2 87 +6 +6 989.5 987.1 +8.6 6
08 19.09 Ю 10
{21}
14 км сильн. дождь н/о +12.5 +11.5 94 +9 +9 981.9 979.5
07 19.09 Ю 9 7000 м слаб. дождь н/о +11.2 +10.0 92 +7 +7 985.4 983.0
09 19.09 Ю 17
{27}
10 км {дождь} н/о +13.6 +8.2 70 +10 +10 980.2 977.8
10 19.09 Ю 18
{29}
10 км в посл. час дождь {ливн. осадки} н/о +11.5 +9.2 86 +6 +6 980.5 978.1
11 19.09 З 21
{30}
7000 м дымка н/о +12.1 +9.0 81 +7 +7 983.3 980.9
12 19.09 З 18
{32}
8000 м дымка {ливн. осадки, дождь} н/о +11.4 +7.7 78 +6 +6 988.8 986.4 7
14 19.09 З 21
{27}
10 км слаб. ливневой дождь н/о +11.1 +8.5 84 +5 +5 994.3 991.9
13 19.09 З 18
{24}
7000 м слаб. дождь н/о +11.2 +9.1 87 +6 +6 992.1 989.6
15 19.09 ЮЗ 18
{30}
12 км в посл. час дождь {ливн. осадки} н/о +11.0 +7.7 80 +6 +6 996.0 993.5
16 19.09 ЮЗ 18
{27}
15 км в посл. час морось н/о +11.7 +6.4 70 +7 +7 997.1 994.7
17 19.09 ЮЗ 16
{28}
16 км слаб. ливневой дождь н/о +10.5 +5.9 73 +5 +5 998.4 995.9
18 19.09 ЮЗ 15
{21}
15 км в посл. час дождь {ливн. осадки} н/о +10.8 +6.1 73 +6 +6 999.0 996.5 10
20 19.09 ЮЗ 14
{19}
19 км в посл. час дождь {ливн. осадки} н/о +10.2 +6.8 79 +5 +5 999.6 997.1
19 19.09 ЮЗ 12
{21}
6000 м дождь н/о +9.4 +7.1 86 +4 +4 999.6 997.1
21 19.09 ЮЗ 16
{23}
19 км в посл. час дождь {ливн. осадки} н/о +10.2 +7.1 81 +5 +5 1000.1 997.7
22 19.09 ЮЗ 13
{20}
13 км н/о +10.4 +7.0 79 +6 +6 1000.9 998.5
23 19.09 ЮЗ 13
{21}
14 км слаб. ливневой дождь н/о +10.6 +7.7 82 +6 +6 1001.5 999.0
00 20.09 ЮЗ 12
{18}
14 км слаб. ливневой дождь н/о +10.6 +7.7 82 +6 +6 1001.8 999.4 2
02 20.09 ЮЗ 11 19 км н/о +10.2 +7.1 81 +6 +6 1002.6 1000.1
01 20.09 ЮЗ 12
{19}
20 км в посл. час морось {ливн. осадки} н/о +10.1 +7.2 82 +5 +5 1002.3 999.9
03 20.09 ЮЗ 11 17 км слаб. ливневой дождь н/о +10.5 +7.1 79 +6 +6 1002.9 1000.4
04 20.09 ЮЗ 11 16 км слаб. ливневой дождь н/о +10.3 +6.8 79 +6 +6 1003.1 1000.6
05 20.09 ЮЗ 8 14 км в посл. час дождь {ливн. осадки} н/о +9.8 +7.3 84 +6 +6 1003.1 1000.7
06 20.09 Ю 9 14 км в посл. час морось {ливн. осадки} н/о +9.7 +7.2 84 +5 +5 1003.3 1000.9 +8.8 3
08 20.09 ЮЗ 11 21 км н/о +10.9 +7.3 78 +7 +7 1003.7 1001.3
07 20.09 ЮЗ 11 17 км н/о +9.9 +7.2 83 +5 +5 1003.4 1000.9
09 20.09 ЮЗ 7 11 км слаб. ливневой дождь н/о +11.9 +8.8 81 +9 +9 1003.7 1001.2
10 20.09 ЮЗ 8 17 км н/о +12.0 +8.5 79 +9 +9 1003.8 1001.3
11 20.09 Ю 6 23 км н/о +11.9 +8.2 78 +9 +9 1003.7 1001.2
12 20.09 З 5 5000 м ливневой дождь н/о +10.7 +8.1 84 +8 +8 1003.1 1000.6 1
14 20.09 ЮЗ 5 24 км н/о +11.9 +7.4 74 +10 +10 1002.1 999.7
13 20.09 ЮЗ 6 25 км слаб. ливневой дождь н/о +11.6 +8.0 79 +9 +9 1002.8 1000.3
15 20.09 ЮЗ 4 24 км {ливн. осадки} н/о +12.2 +6.8 70 +10 +10 1000.9 998.4
16 20.09 З 4 23 км н/о +11.0 +6.6 74 +9 +9 1000.6 998.1
17 20.09 Ю 2 8000 м слаб. ливневой дождь н/о +10.1 +6.7 79 +9 +9 999.8 997.3
18 20.09 ЮВ 3 18 км в посл. час дождь {ливн. осадки} н/о +9.2 +6.2 81 +7 +7 999.1 996.6 +12.5 1
20 20.09 Ю 2 35 км в посл. час дождь {ливн. осадки} н/о +8.6 +5.3 80 +7 +7 998.0 995.5
19 20.09 Ю 3 10 км в посл. час дождь {ливн. осадки} н/о +8.6 +6.2 85 +6 +6 998.4 995.9
21 20.09 ЮЗ 4 9000 м слаб. дождь {ливн. осадки} н/о +8.0 +5.9 87 +5 +5 997.4 994.9

 

Местоположение метеостанции Malin Head (Ирландия): широта 55.37 долгота -7.34 высота над уровнем моря 20 м.

В архиве по умолчанию представлена погода в Malin Head за последнюю неделю. Архивные данные за месяц целиком и за предыдущие месяцы, начиная с января 2011 года, Вы можете получить, выбрав интересующий диапазон дат из раскрывающегося списка и нажав кнопку "Ввод!".


*Определитесь, кто Вы:
робот инопланетянин человек

Внимание! Время в таблицах - всемирное. Для получения местного времени необходимо прибавить поправку, которая в Malin Head равна 0 ч.

Смотрите также архив погоды в соседних городах и на ближайших метеорологических станциях:

Погода в Magilligan No 2 (Великобритания) (36 км)
Погода в Castlederg (Великобритания) (76 км)
Погода в Port Ellen (Великобритания) (77 км)
Погода в Ballypatrick Forest (Великобритания) (77 км)
Погода в Portglenone (Великобритания) (79 км)
Погода в Lough Fea (Великобритания) (80 км)
Погода в Machrihanish (Великобритания) (104 км)
Погода в Belfast (Великобритания) (107 км)
Погода в Finner (Ирландия) (114 км)
Погода в Thomastown (Великобритания) (117 км)

Пояснения к столбцам:

Ветер - указаны скорость ветра в м/с - средняя за 10 мин, порывы в срок и между сроками (в фигурных скобках) и направление, откуда дует ветер: С - северный, СВ - северо-восточный, В - восточный, ЮВ - юго-восточный, Ю - южный, ЮЗ - юго-западный, З - западный, СЗ - северо-западный.
Видимость - горизонтальная дальность видимости в метрах или километрах. При видимости от 1 до 10 км при отсутствии осадков обычно наблюдается дымка, при ухудшении видимости до 1 км и менее - туман. В сухую погоду видимость может ухудшаться дымом, пылью или мглою.
Явления - указаны атмосферные явления, наблюдавшиеся в срок или в последний час перед сроком; фигурными скобками обозначены явления, наблюдавшиеся между сроками (за 1-3 часа до срока); квадратными скобками обозначены град или гололедные отложения с указанием их диаметра в мм.
Облачность - указаны через наклонную черту общая и нижняя облачность в баллах и высота нижней границы облаков в метрах; квадратными скобками обозначены формы облаков: Ci - перистые, Cs - перисто-слоистые, Cc - перисто-кучевые, Ac - высококучевые, As - высокослоистые, Sc - слоисто-кучевые, Ns - слоисто-дождевые, Cu - кучевые, Cb - кучево-дождевые. Подробнее классификацию облаков см. в Атласе облаков (PDF).
T - Температура воздуха - температура, измеренная на высоте 2 м над землей.
Td - Температура точки росы - температура, при понижении до которой содержащийся в воздухе водяной пар достигнет насыщения.
f - Относительная влажность воздуха - влажноcть воздуха, измеренная на высоте 2 м над землей.
Te - Эффективная температура - температура, которую ощущает одетый по сезону человек в тени. Характеристика душности погоды. При расчете учитывается влияние влажности воздуха и скорости ветра на теплоощущения человека.
Tes - Эффективная температура на солнце - температура, которую ощущает человек, с поправкой на солнечный нагрев. Характеристика знойности погоды. Зависит от высоты солнца над горизонтом, облачности и скорости ветра. Ночью, в пасмурную погоду, а также при ветре 12 м/с и более поправка равна нулю.
P - Атмосферное давление - приведенное к уровню моря атмосферное давление.
Po - Атмосферное давление - измеренное на уровне метеостанции атмосферное давление.
Tmin - Минимальная температура - минимум температуры воздуха на высоте 2 м над землей.
Tmax - Максимальная температура - максимум температуры воздуха на высоте 2 м над землей.
R - Количество осадков - Количество выпавших осадков за период времени, мм. При наведении курсора мыши на число - период времени, за который выпало указанное количество осадков.
R24 - Количество осадков - Количество выпавших осадков за 24 часа, мм.
S - Снежный покров - Высота снежного покрова, см. При наведении курсора мыши на число - состояние снежного покрова и степень покрытия местности в баллах.